Time,TemperatureF,DewpointF,PressureIn,WindDirection,WindDirectionDegrees,WindSpeedMPH,WindSpeedGustMPH,Humidity,HourlyPrecipIn,Conditions,Clouds,dailyrainin,SoftwareType,DateUTC
2013-04-25 00:00:00,31.9,24.9,30.01,South,191,0.0,2.0,75,0.00,,---,0.05,VWS V14.01,2013-04-25 04:00:00,
2013-04-25 00:01:00,31.3,23.7,30.00,SE,145,1.0,1.0,73,0.00,,---,0.00,VWS V14.01,2013-04-25 04:01:00,
2013-04-25 00:02:00,31.3,23.7,30.00,SE,143,2.0,3.0,73,0.00,,---,0.00,VWS V14.01,2013-04-25 04:02:00,
2013-04-25 00:07:00,31.6,24.0,30.00,SE,138,2.0,3.0,73,0.00,,---,0.00,VWS V14.01,2013-04-25 04:07:00,
2013-04-25 00:12:00,32.1,24.4,30.00,SE,126,1.0,3.0,73,0.00,,---,0.00,VWS V14.01,2013-04-25 04:12:00,
2013-04-25 00:17:00,32.9,23.2,30.00,SE,131,2.0,3.0,67,0.00,,---,0.00,VWS V14.01,2013-04-25 04:17:00,
2013-04-25 00:22:00,32.9,23.2,30.00,ESE,120,1.0,3.0,67,0.00,,---,0.00,VWS V14.01,2013-04-25 04:22:00,
2013-04-25 00:27:00,32.9,23.2,30.00,ESE,119,1.0,3.0,67,0.00,,---,0.00,VWS V14.01,2013-04-25 04:27:00,
2013-04-25 00:30:00,32.1,24.4,30.00,ESE,117,1.0,3.0,73,0.00,,---,0.05,VWS V14.01,2013-04-25 04:30:00,
2013-04-25 00:32:00,34.0,24.2,30.00,ESE,119,2.0,2.0,67,0.00,,---,0.00,VWS V14.01,2013-04-25 04:32:00,
2013-04-25 00:37:00,34.1,24.3,30.00,ESE,110,0.0,3.0,67,0.00,,---,0.00,VWS V14.01,2013-04-25 04:37:00,
2013-04-25 00:42:00,33.8,24.0,30.00,ESE,117,2.0,4.0,67,0.00,,---,0.00,VWS V14.01,2013-04-25 04:42:00,
2013-04-25 00:47:00,33.8,23.7,29.99,ENE,73,2.0,4.0,66,0.00,,---,0.00,VWS V14.01,2013-04-25 04:47:00,
2013-04-25 00:52:00,33.7,23.6,29.99,ESE,120,3.0,4.0,66,0.00,,---,0.00,VWS V14.01,2013-04-25 04:52:00,
2013-04-25 00:57:00,33.7,23.6,29.99,ESE,120,3.0,4.0,66,0.00,,---,0.00,VWS V14.01,2013-04-25 04:57:00,
2013-04-25 01:00:00,31.3,23.7,30.00,SE,145,1.0,6.0,73,0.00,,---,0.05,VWS V14.01,2013-04-25 05:00:00,
2013-04-25 01:02:00,33.7,23.6,29.99,ESE,120,3.0,3.0,66,0.00,,---,0.00,VWS V14.01,2013-04-25 05:02:00,
2013-04-25 01:07:00,33.7,23.6,29.99,ESE,120,3.0,3.0,66,0.00,,---,0.00,VWS V14.01,2013-04-25 05:07:00,
2013-04-25 01:12:00,33.7,23.6,29.99,ESE,120,3.0,3.0,66,0.00,,---,0.00,VWS V14.01,2013-04-25 05:12:00,
2013-04-25 01:17:00,33.7,23.6,29.98,ESE,120,3.0,3.0,66,0.00,,---,0.00,VWS V14.01,2013-04-25 05:17:00,
2013-04-25 01:22:00,33.7,23.6,29.98,ESE,120,3.0,3.0,66,0.00,,---,0.00,VWS V14.01,2013-04-25 05:22:00,
2013-04-25 01:27:00,33.7,23.6,29.98,ESE,120,3.0,3.0,66,0.00,,---,0.00,VWS V14.01,2013-04-25 05:27:00,
2013-04-25 01:30:00,32.9,23.2,30.00,ESE,120,0.0,3.0,67,0.00,,---,0.00,VWS V14.01,2013-04-25 05:30:00,
2013-04-25 01:32:00,33.7,23.6,29.98,ESE,120,3.0,3.0,66,0.00,,---,0.00,VWS V14.01,2013-04-25 05:32:00,
2013-04-25 01:37:00,33.7,23.6,29.98,SE,136,0.0,3.0,66,0.00,,---,0.00,VWS V14.01,2013-04-25 05:37:00,
2013-04-25 01:42:00,33.7,23.6,29.98,SE,131,0.0,3.0,66,0.00,,---,0.00,VWS V14.01,2013-04-25 05:42:00,
2013-04-25 01:47:00,33.4,23.3,29.98,SE,127,5.0,5.0,66,0.00,,---,0.00,VWS V14.01,2013-04-25 05:47:00,
2013-04-25 01:52:00,33.5,23.7,29.98,ESE,121,2.0,5.0,67,0.00,,---,0.00,VWS V14.01,2013-04-25 05:52:00,
2013-04-25 01:57:00,33.5,23.7,29.98,ESE,117,1.0,5.0,67,0.00,,---,0.00,VWS V14.01,2013-04-25 05:57:00,
2013-04-25 02:00:00,33.7,23.6,29.99,ESE,120,3.0,4.0,66,0.00,,---,0.00,VWS V14.01,2013-04-25 06:00:00,
2013-04-25 02:02:00,33.5,23.7,29.98,SE,133,0.0,6.0,67,0.00,,---,0.00,VWS V14.01,2013-04-25 06:02:00,
2013-04-25 02:07:00,33.5,23.7,29.98,SE,133,2.0,6.0,67,0.00,,---,0.00,VWS V14.01,2013-04-25 06:07:00,
2013-04-25 02:12:00,33.5,23.7,29.98,SE,133,2.0,6.0,67,0.00,,---,0.00,VWS V14.01,2013-04-25 06:12:00,
2013-04-25 02:17:00,33.5,23.7,29.98,ESE,121,1.0,6.0,67,0.00,,---,0.00,VWS V14.01,2013-04-25 06:17:00,
2013-04-25 02:22:00,33.4,23.6,29.98,SE,127,2.0,6.0,67,0.00,,---,0.00,VWS V14.01,2013-04-25 06:22:00,
2013-04-25 02:27:00,33.4,23.6,29.98,SSE,151,3.0,6.0,67,0.00,,---,0.00,VWS V14.01,2013-04-25 06:27:00,
2013-04-25 02:30:00,33.7,23.6,29.98,ESE,120,3.0,3.0,66,0.00,,---,0.00,VWS V14.01,2013-04-25 06:30:00,
2013-04-25 02:32:00,33.5,23.7,29.97,ESE,116,0.0,0.0,67,0.00,,---,0.00,VWS V14.01,2013-04-25 06:32:00,
2013-04-25 02:37:00,33.4,23.6,29.97,SE,134,1.0,3.0,67,0.00,,---,0.00,VWS V14.01,2013-04-25 06:37:00,
2013-04-25 02:42:00,33.4,23.6,29.97,SE,130,1.0,3.0,67,0.00,,---,0.00,VWS V14.01,2013-04-25 06:42:00,
2013-04-25 02:47:00,33.4,23.6,29.97,SE,124,1.0,3.0,67,0.00,,---,0.00,VWS V14.01,2013-04-25 06:47:00,
2013-04-25 02:52:00,33.7,25.0,29.97,SE,128,1.0,3.0,70,0.00,,---,0.00,VWS V14.01,2013-04-25 06:52:00,
2013-04-25 02:57:00,34.0,25.3,29.97,SE,133,1.0,4.0,70,0.00,,---,0.00,VWS V14.01,2013-04-25 06:57:00,
2013-04-25 03:00:00,33.5,23.7,29.98,ESE,123,6.0,6.0,67,0.00,,---,0.00,VWS V14.01,2013-04-25 07:00:00,
2013-04-25 03:02:00,34.0,25.3,29.96,ESE,109,0.0,2.0,70,0.00,,---,0.00,VWS V14.01,2013-04-25 07:02:00,
2013-04-25 03:07:00,34.0,25.3,29.96,ESE,107,0.0,2.0,70,0.00,,---,0.00,VWS V14.01,2013-04-25 07:07:00,
2013-04-25 03:12:00,34.6,25.8,29.96,SE,141,1.0,3.0,70,0.00,,---,0.00,VWS V14.01,2013-04-25 07:12:00,
2013-04-25 03:17:00,34.6,25.8,29.95,ESE,110,0.0,3.0,70,0.00,,---,0.00,VWS V14.01,2013-04-25 07:17:00,
2013-04-25 03:22:00,34.6,25.8,29.95,SW,226,0.0,4.0,70,0.00,,---,0.00,VWS V14.01,2013-04-25 07:22:00,
2013-04-25 03:27:00,34.4,25.6,29.95,ESE,110,2.0,4.0,70,0.00,,---,0.00,VWS V14.01,2013-04-25 07:27:00,
2013-04-25 03:30:00,33.5,23.7,29.97,ESE,116,0.0,6.0,67,0.00,,---,0.00,VWS V14.01,2013-04-25 07:30:00,
2013-04-25 03:32:00,34.4,25.6,29.95,ESE,112,0.0,0.0,70,0.00,,---,0.00,VWS V14.01,2013-04-25 07:32:00,
2013-04-25 03:37:00,34.4,24.6,29.95,ESE,117,1.0,1.0,67,0.00,,---,0.00,VWS V14.01,2013-04-25 07:37:00,
2013-04-25 03:42:00,34.4,24.6,29.95,ESE,123,2.0,2.0,67,0.00,,---,0.00,VWS V14.01,2013-04-25 07:42:00,
2013-04-25 03:47:00,34.6,24.8,29.94,ESE,123,1.0,5.0,67,0.00,,---,0.00,VWS V14.01,2013-04-25 07:47:00,
2013-04-25 03:52:00,34.6,24.8,29.94,SE,127,0.0,5.0,67,0.00,,---,0.00,VWS V14.01,2013-04-25 07:52:00,
2013-04-25 03:57:00,34.6,24.4,29.94,ESE,123,6.0,6.0,66,0.00,,---,0.00,VWS V14.01,2013-04-25 07:57:00,
2013-04-25 04:00:00,34.0,25.3,29.96,ESE,121,2.0,4.0,70,0.00,,---,0.00,VWS V14.01,2013-04-25 08:00:00,
2013-04-25 04:02:00,34.7,24.5,29.94,SE,130,1.0,1.0,66,0.00,,---,0.00,VWS V14.01,2013-04-25 08:02:00,
2013-04-25 04:07:00,34.7,24.9,29.94,SE,131,1.0,2.0,67,0.00,,---,0.00,VWS V14.01,2013-04-25 08:07:00,
2013-04-25 04:12:00,34.7,24.9,29.94,WSW,250,1.0,4.0,67,0.00,,---,0.00,VWS V14.01,2013-04-25 08:12:00,
2013-04-25 04:17:00,34.7,24.9,29.93,SE,140,0.0,4.0,67,0.00,,---,0.00,VWS V14.01,2013-04-25 08:17:00,
2013-04-25 04:22:00,34.9,25.1,29.93,SE,138,0.0,4.0,67,0.00,,---,0.00,VWS V14.01,2013-04-25 08:22:00,
2013-04-25 04:27:00,34.9,24.7,29.93,SE,133,1.0,5.0,66,0.00,,---,0.00,VWS V14.01,2013-04-25 08:27:00,
2013-04-25 04:30:00,34.4,25.6,29.95,ESE,112,0.0,4.0,70,0.00,,---,0.00,VWS V14.01,2013-04-25 08:30:00,
2013-04-25 04:32:00,35.0,25.5,29.93,SE,130,1.0,4.0,68,0.00,,---,0.00,VWS V14.01,2013-04-25 08:32:00,
2013-04-25 04:37:00,35.0,24.8,29.93,SE,126,2.0,5.0,66,0.00,,---,0.00,VWS V14.01,2013-04-25 08:37:00,
2013-04-25 04:43:00,35.3,25.1,29.93,SE,143,0.0,6.0,66,0.00,,---,0.00,VWS V14.01,2013-04-25 08:43:00,
2013-04-25 04:48:00,35.3,25.1,29.92,ESE,117,1.0,6.0,66,0.00,,---,0.00,VWS V14.01,2013-04-25 08:48:00,
2013-04-25 04:53:00,35.5,25.3,29.92,SSE,165,1.0,6.0,66,0.00,,---,0.00,VWS V14.01,2013-04-25 08:53:00,
2013-04-25 04:58:00,35.5,25.3,29.92,SSE,148,2.0,6.0,66,0.00,,---,0.00,VWS V14.01,2013-04-25 08:58:00,
2013-04-25 05:00:00,34.7,24.5,29.94,South,172,0.0,6.0,66,0.00,,---,0.00,VWS V14.01,2013-04-25 09:00:00,
2013-04-25 05:03:00,35.6,25.4,29.93,South,169,0.0,5.0,66,0.00,,---,0.00,VWS V14.01,2013-04-25 09:03:00,
2013-04-25 05:08:00,35.8,25.6,29.93,East,100,3.0,5.0,66,0.00,,---,0.00,VWS V14.01,2013-04-25 09:08:00,
2013-04-25 05:13:00,35.8,25.6,29.93,ESE,109,0.0,5.0,66,0.00,,---,0.00,VWS V14.01,2013-04-25 09:13:00,
2013-04-25 05:18:00,35.9,26.0,29.93,South,171,1.0,5.0,67,0.00,,---,0.00,VWS V14.01,2013-04-25 09:18:00,
2013-04-25 05:23:00,36.0,26.1,29.93,ESE,119,2.0,5.0,67,0.00,,---,0.00,VWS V14.01,2013-04-25 09:23:00,
2013-04-25 05:28:00,36.5,26.2,29.93,SE,141,0.0,5.0,66,0.00,,---,0.00,VWS V14.01,2013-04-25 09:28:00,
2013-04-25 05:30:00,35.0,24.8,29.93,SE,137,0.0,5.0,66,0.00,,---,0.00,VWS V14.01,2013-04-25 09:30:00,
2013-04-25 05:33:00,37.0,26.7,29.93,South,189,1.0,6.0,66,0.00,,---,0.00,VWS V14.01,2013-04-25 09:33:00,
2013-04-25 05:38:00,37.3,27.0,29.93,ESE,104,2.0,6.0,66,0.00,,---,0.00,VWS V14.01,2013-04-25 09:38:00,
2013-04-25 05:43:00,37.6,27.3,29.93,SSE,155,1.0,6.0,66,0.00,,---,0.00,VWS V14.01,2013-04-25 09:43:00,
2013-04-25 05:48:00,37.8,27.8,29.93,SE,141,4.0,7.0,67,0.00,,---,0.00,VWS V14.01,2013-04-25 09:48:00,
2013-04-25 05:53:00,38.2,28.2,29.93,South,169,3.0,7.0,67,0.00,,---,0.00,VWS V14.01,2013-04-25 09:53:00,
2013-04-25 05:58:00,38.5,28.5,29.93,SW,215,1.0,10.0,67,0.00,,---,0.00,VWS V14.01,2013-04-25 09:58:00,
2013-04-25 06:00:00,35.6,25.4,29.93,SE,130,5.0,6.0,66,0.00,,---,0.00,VWS V14.01,2013-04-25 10:00:00,
2013-04-25 06:03:00,38.9,29.2,29.92,WSW,240,1.0,10.0,68,0.00,,---,0.00,VWS V14.01,2013-04-25 10:03:00,
2013-04-25 06:08:00,38.9,31.3,29.92,SW,224,7.0,11.0,74,0.00,,---,0.00,VWS V14.01,2013-04-25 10:08:00,
2013-04-25 06:13:00,38.6,32.3,29.92,SE,143,3.0,11.0,78,0.00,,---,0.00,VWS V14.01,2013-04-25 10:13:00,
2013-04-25 06:18:00,38.3,33.0,29.92,South,179,6.0,11.0,81,0.00,,---,0.00,VWS V14.01,2013-04-25 10:18:00,
2013-04-25 06:23:00,38.0,33.3,29.92,ESE,114,4.0,11.0,83,0.00,,---,0.00,VWS V14.01,2013-04-25 10:23:00,
2013-04-25 06:28:00,37.9,33.5,29.92,SSE,158,5.0,11.0,84,0.00,,---,0.00,VWS V14.01,2013-04-25 10:28:00,
2013-04-25 06:30:00,36.6,26.3,29.93,SE,133,2.0,5.0,66,0.00,,---,0.00,VWS V14.01,2013-04-25 10:30:00,
2013-04-25 06:33:00,37.8,33.4,29.91,South,182,2.0,6.0,84,0.01,,---,0.01,VWS V14.01,2013-04-25 10:33:00,
2013-04-25 06:38:00,37.6,33.2,29.91,ESE,121,0.0,7.0,84,0.01,,---,0.01,VWS V14.01,2013-04-25 10:38:00,
2013-04-25 06:43:00,37.5,33.4,29.91,ESE,119,4.0,7.0,85,0.01,,---,0.01,VWS V14.01,2013-04-25 10:43:00,
2013-04-25 06:48:00,37.3,33.2,29.91,SSE,167,1.0,7.0,85,0.01,,---,0.01,VWS V14.01,2013-04-25 10:48:00,
2013-04-25 06:53:00,37.5,33.4,29.91,East,100,2.0,8.0,85,0.01,,---,0.01,VWS V14.01,2013-04-25 10:53:00,
2013-04-25 06:58:00,37.5,33.4,29.91,SE,133,3.0,8.0,85,0.01,,---,0.01,VWS V14.01,2013-04-25 10:58:00,
2013-04-25 07:00:00,38.6,29.0,29.92,SSE,164,6.0,13.0,68,0.00,,---,0.00,VWS V14.01,2013-04-25 11:00:00,
2013-04-25 07:03:00,37.5,33.4,29.90,ESE,120,2.0,2.0,85,0.01,,---,0.01,VWS V14.01,2013-04-25 11:03:00,
2013-04-25 07:08:00,37.3,33.5,29.90,SSE,165,2.0,3.0,86,0.01,,---,0.01,VWS V14.01,2013-04-25 11:08:00,
2013-04-25 07:13:00,37.6,33.8,29.90,SSE,161,2.0,10.0,86,0.01,,---,0.01,VWS V14.01,2013-04-25 11:13:00,
2013-04-25 07:18:00,37.6,33.8,29.90,SSE,151,3.0,10.0,86,0.01,,---,0.01,VWS V14.01,2013-04-25 11:18:00,
2013-04-25 07:23:00,37.8,34.0,29.90,South,185,6.0,15.0,86,0.01,,---,0.01,VWS V14.01,2013-04-25 11:23:00,
2013-04-25 07:28:00,38.0,34.2,29.90,SE,140,2.0,15.0,86,0.01,,---,0.01,VWS V14.01,2013-04-25 11:28:00,
2013-04-25 07:30:00,37.8,33.4,29.91,ESE,121,3.0,11.0,84,0.01,,---,0.01,VWS V14.01,2013-04-25 11:30:00,
2013-04-25 07:33:00,38.2,34.4,29.90,ENE,78,8.0,10.0,86,0.00,,---,0.01,VWS V14.01,2013-04-25 11:33:00,
2013-04-25 07:38:00,38.5,34.1,29.90,SSE,150,11.0,13.0,84,0.00,,---,0.01,VWS V14.01,2013-04-25 11:38:00,
2013-04-25 07:43:00,38.6,34.2,29.90,SSE,164,3.0,13.0,84,0.00,,---,0.01,VWS V14.01,2013-04-25 11:43:00,
2013-04-25 07:48:00,38.8,34.4,29.89,ESE,123,2.0,13.0,84,0.00,,---,0.01,VWS V14.01,2013-04-25 11:48:00,
2013-04-25 07:53:00,38.9,34.2,29.89,SSE,147,3.0,13.0,83,0.00,,---,0.01,VWS V14.01,2013-04-25 11:53:00,
2013-04-25 07:58:00,38.9,34.2,29.89,SE,143,3.0,13.0,83,0.00,,---,0.01,VWS V14.01,2013-04-25 11:58:00,
2013-04-25 08:00:00,37.5,33.4,29.90,South,188,2.0,8.0,85,0.01,,---,0.01,VWS V14.01,2013-04-25 12:00:00,
2013-04-25 08:03:00,39.1,34.4,29.89,SSE,155,2.0,10.0,83,0.00,,---,0.01,VWS V14.01,2013-04-25 12:03:00,
2013-04-25 08:08:00,39.1,34.4,29.89,SSE,151,6.0,10.0,83,0.00,,---,0.01,VWS V14.01,2013-04-25 12:08:00,
2013-04-25 08:13:00,39.1,34.4,29.89,SSE,154,3.0,10.0,83,0.00,,---,0.01,VWS V14.01,2013-04-25 12:13:00,
2013-04-25 08:18:00,39.2,34.2,29.90,SSE,167,8.0,14.0,82,0.00,,---,0.01,VWS V14.01,2013-04-25 12:18:00,
2013-04-25 08:23:00,39.2,34.2,29.90,WSW,241,2.0,14.0,82,0.00,,---,0.01,VWS V14.01,2013-04-25 12:23:00,
2013-04-25 08:28:00,39.3,34.3,29.90,SSW,210,10.0,14.0,82,0.00,,---,0.01,VWS V14.01,2013-04-25 12:28:00,
2013-04-25 08:30:00,38.0,34.2,29.90,South,188,3.0,15.0,86,0.01,,---,0.01,VWS V14.01,2013-04-25 12:30:00,
2013-04-25 08:33:00,39.3,34.3,29.90,West,272,1.0,16.0,82,0.00,,---,0.01,VWS V14.01,2013-04-25 12:33:00,
2013-04-25 08:38:00,39.5,34.2,29.90,South,178,3.0,16.0,81,0.00,,---,0.01,VWS V14.01,2013-04-25 12:38:00,
2013-04-25 08:43:00,39.6,34.3,29.90,South,172,5.0,16.0,81,0.00,,---,0.01,VWS V14.01,2013-04-25 12:43:00,
2013-04-25 08:48:00,39.6,34.3,29.91,WSW,237,15.0,17.0,81,0.00,,---,0.01,VWS V14.01,2013-04-25 12:48:00,
2013-04-25 08:53:00,39.6,34.3,29.91,SW,236,7.0,17.0,81,0.00,,---,0.01,VWS V14.01,2013-04-25 12:53:00,
2013-04-25 08:58:00,39.6,34.3,29.91,ESE,113,2.0,17.0,81,0.00,,---,0.01,VWS V14.01,2013-04-25 12:58:00,
2013-04-25 09:00:00,38.9,34.2,29.89,SSW,212,4.0,13.0,83,0.00,,---,0.01,VWS V14.01,2013-04-25 13:00:00,
2013-04-25 09:03:00,39.5,34.2,29.92,SW,226,5.0,17.0,81,0.00,,---,0.01,VWS V14.01,2013-04-25 13:03:00,
2013-04-25 09:08:00,39.2,33.9,29.92,South,186,2.0,19.0,81,0.00,,---,0.01,VWS V14.01,2013-04-25 13:08:00,
2013-04-25 09:13:00,38.8,33.8,29.92,SW,223,6.0,19.0,82,0.00,,---,0.01,VWS V14.01,2013-04-25 13:13:00,
2013-04-25 09:18:00,38.5,33.8,29.94,South,175,8.0,19.0,83,0.00,,---,0.01,VWS V14.01,2013-04-25 13:18:00,
2013-04-25 09:23:00,38.2,33.2,29.94,WSW,239,7.0,19.0,82,0.00,,---,0.01,VWS V14.01,2013-04-25 13:23:00,
2013-04-25 09:28:00,38.2,33.2,29.94,WSW,240,14.0,19.0,82,0.00,,---,0.01,VWS V14.01,2013-04-25 13:28:00,
2013-04-25 09:30:00,39.3,34.3,29.90,SE,136,4.0,14.0,82,0.00,,---,0.01,VWS V14.01,2013-04-25 13:30:00,
2013-04-25 09:33:00,38.3,33.0,29.95,WNW,301,5.0,11.0,81,0.00,,---,0.01,VWS V14.01,2013-04-25 13:33:00,
2013-04-25 09:38:00,38.2,32.6,29.95,SW,230,10.0,14.0,80,0.00,,---,0.01,VWS V14.01,2013-04-25 13:38:00,
2013-04-25 09:43:00,38.2,32.9,29.95,SW,234,8.0,14.0,81,0.00,,---,0.01,VWS V14.01,2013-04-25 13:43:00,
2013-04-25 09:48:00,38.0,32.7,29.96,SSW,212,11.0,15.0,81,0.00,,---,0.01,VWS V14.01,2013-04-25 13:48:00,
2013-04-25 09:53:00,37.8,32.8,29.96,SSW,212,13.0,19.0,82,0.00,,---,0.01,VWS V14.01,2013-04-25 13:53:00,
2013-04-25 09:58:00,37.5,32.5,29.96,WNW,296,3.0,19.0,82,0.00,,---,0.01,VWS V14.01,2013-04-25 13:58:00,
2013-04-25 10:00:00,39.6,34.3,29.92,SSE,147,14.0,17.0,81,0.00,,---,0.01,VWS V14.01,2013-04-25 14:00:00,
2013-04-25 10:03:00,37.2,32.5,29.97,South,185,5.0,10.0,83,0.00,,---,0.01,VWS V14.01,2013-04-25 14:03:00,
2013-04-25 10:08:00,37.2,32.5,29.97,WNW,287,6.0,11.0,83,0.00,,---,0.01,VWS V14.01,2013-04-25 14:08:00,
2013-04-25 10:14:00,37.3,32.0,29.97,SW,216,5.0,17.0,81,0.00,,---,0.01,VWS V14.01,2013-04-25 14:14:00,
2013-04-25 10:19:00,37.5,31.9,29.98,North,349,14.0,17.0,80,0.00,,---,0.01,VWS V14.01,2013-04-25 14:19:00,
2013-04-25 10:24:00,37.5,32.2,29.98,SW,236,8.0,17.0,81,0.00,,---,0.01,VWS V14.01,2013-04-25 14:24:00,
2013-04-25 10:29:00,37.3,32.0,29.98,SSE,151,3.0,17.0,81,0.00,,---,0.01,VWS V14.01,2013-04-25 14:29:00,
2013-04-25 10:30:00,38.2,32.9,29.95,SSW,205,9.0,19.0,81,0.00,,---,0.01,VWS V14.01,2013-04-25 14:30:00,
2013-04-25 10:34:00,37.6,32.3,29.99,West,272,7.0,11.0,81,0.00,,---,0.01,VWS V14.01,2013-04-25 14:34:00,
2013-04-25 10:39:00,37.9,32.6,29.99,West,270,3.0,11.0,81,0.00,,---,0.01,VWS V14.01,2013-04-25 14:39:00,
2013-04-25 10:44:00,38.2,32.9,29.99,South,169,2.0,13.0,81,0.00,,---,0.01,VWS V14.01,2013-04-25 14:44:00,
2013-04-25 10:49:00,38.3,32.4,29.99,SSW,210,6.0,13.0,79,0.00,,---,0.01,VWS V14.01,2013-04-25 14:49:00,
2013-04-25 10:54:00,38.6,32.7,29.99,West,265,9.0,13.0,79,0.00,,---,0.01,VWS V14.01,2013-04-25 14:54:00,
2013-04-25 10:59:00,38.6,32.0,29.99,SSE,162,4.0,13.0,77,0.00,,---,0.01,VWS V14.01,2013-04-25 14:59:00,
2013-04-25 11:00:00,37.3,32.3,29.97,South,188,2.0,19.0,82,0.00,,---,0.01,VWS V14.01,2013-04-25 15:00:00,
2013-04-25 11:04:00,38.5,31.9,30.00,South,174,7.0,11.0,77,0.00,,---,0.01,VWS V14.01,2013-04-25 15:04:00,
2013-04-25 11:09:00,38.2,32.3,30.00,South,185,4.0,11.0,79,0.00,,---,0.01,VWS V14.01,2013-04-25 15:09:00,
2013-04-25 11:14:00,38.2,32.0,30.00,SW,230,6.0,12.0,78,0.00,,---,0.01,VWS V14.01,2013-04-25 15:14:00,
2013-04-25 11:19:00,38.5,31.9,30.01,WSW,244,8.0,14.0,77,0.00,,---,0.01,VWS V14.01,2013-04-25 15:19:00,
2013-04-25 11:24:00,38.5,31.3,30.01,SSW,210,12.0,14.0,75,0.00,,---,0.01,VWS V14.01,2013-04-25 15:24:00,
2013-04-25 11:29:00,38.6,31.0,30.01,WNW,288,8.0,14.0,74,0.00,,---,0.01,VWS V14.01,2013-04-25 15:29:00,
2013-04-25 11:30:00,37.5,32.2,29.99,East,100,2.0,17.0,81,0.00,,---,0.01,VWS V14.01,2013-04-25 15:30:00,
2013-04-25 11:34:00,38.8,31.2,30.01,South,181,8.0,13.0,74,0.00,,---,0.01,VWS V14.01,2013-04-25 15:34:00,
2013-04-25 11:39:00,38.8,31.2,30.01,ESE,106,5.0,13.0,74,0.00,,---,0.01,VWS V14.01,2013-04-25 15:39:00,
2013-04-25 11:44:00,39.3,31.7,30.01,SW,232,9.0,14.0,74,0.00,,---,0.01,VWS V14.01,2013-04-25 15:44:00,
2013-04-25 11:49:00,39.5,31.9,30.02,SW,222,1.0,14.0,74,0.00,,---,0.01,VWS V14.01,2013-04-25 15:49:00,
2013-04-25 11:54:00,39.5,31.9,30.02,SSW,195,8.0,17.0,74,0.00,,---,0.01,VWS V14.01,2013-04-25 15:54:00,
2013-04-25 11:59:00,39.3,31.7,30.02,ESE,107,0.0,17.0,74,0.00,,---,0.01,VWS V14.01,2013-04-25 15:59:00,
2013-04-25 12:00:00,38.6,32.0,30.00,West,260,11.0,13.0,77,0.00,,---,0.01,VWS V14.01,2013-04-25 16:00:00,
2013-04-25 12:04:00,39.3,30.0,30.03,NNW,343,4.0,10.0,69,0.00,,---,0.01,VWS V14.01,2013-04-25 16:04:00,
2013-04-25 12:09:00,39.2,29.5,30.03,ENE,71,1.0,11.0,68,0.00,,---,0.01,VWS V14.01,2013-04-25 16:09:00,
2013-04-25 12:14:00,39.2,29.9,30.03,SW,227,11.0,13.0,69,0.00,,---,0.01,VWS V14.01,2013-04-25 16:14:00,
2013-04-25 12:19:00,39.3,29.6,30.04,NW,318,3.0,13.0,68,0.00,,---,0.01,VWS V14.01,2013-04-25 16:19:00,
2013-04-25 12:24:00,39.5,29.8,30.04,WNW,288,8.0,18.0,68,0.00,,---,0.01,VWS V14.01,2013-04-25 16:24:00,
2013-04-25 12:29:00,39.3,30.0,30.04,WSW,253,8.0,18.0,69,0.00,,---,0.01,VWS V14.01,2013-04-25 16:29:00,
2013-04-25 12:30:00,38.5,31.0,30.01,SE,133,2.0,14.0,74,0.00,,---,0.01,VWS V14.01,2013-04-25 16:30:00,
2013-04-25 12:34:00,39.2,30.2,30.05,WSW,251,3.0,7.0,70,0.00,,---,0.01,VWS V14.01,2013-04-25 16:34:00,
2013-04-25 12:39:00,38.9,30.3,30.05,West,261,5.0,7.0,71,0.00,,---,0.01,VWS V14.01,2013-04-25 16:39:00,
2013-04-25 12:44:00,38.6,30.4,30.05,SW,236,2.0,13.0,72,0.00,,---,0.01,VWS V14.01,2013-04-25 16:44:00,
2013-04-25 12:49:00,38.3,30.4,30.06,NNW,333,4.0,19.0,73,0.00,,---,0.01,VWS V14.01,2013-04-25 16:49:00,
2013-04-25 12:54:00,38.3,30.8,30.06,South,186,1.0,19.0,74,0.00,,---,0.01,VWS V14.01,2013-04-25 16:54:00,
2013-04-25 12:59:00,38.5,31.3,30.06,SSE,164,1.0,19.0,75,0.00,,---,0.01,VWS V14.01,2013-04-25 16:59:00,
2013-04-25 13:00:00,39.3,31.7,30.03,WSW,248,5.0,17.0,74,0.00,,---,0.01,VWS V14.01,2013-04-25 17:00:00,
2013-04-25 13:04:00,38.5,31.0,30.07,North,0,3.0,10.0,74,0.00,,---,0.01,VWS V14.01,2013-04-25 17:04:00,
2013-04-25 13:09:00,38.3,30.8,30.07,SW,215,6.0,14.0,74,0.00,,---,0.01,VWS V14.01,2013-04-25 17:09:00,
2013-04-25 13:14:00,38.5,31.3,30.07,SE,126,2.0,16.0,75,0.00,,---,0.01,VWS V14.01,2013-04-25 17:14:00,
2013-04-25 13:19:00,38.5,31.6,30.07,SW,227,2.0,16.0,76,0.00,,---,0.01,VWS V14.01,2013-04-25 17:19:00,
2013-04-25 13:24:00,38.3,31.4,30.07,West,263,2.0,16.0,76,0.00,,---,0.01,VWS V14.01,2013-04-25 17:24:00,
2013-04-25 13:29:00,38.2,32.0,30.07,East,80,7.0,16.0,78,0.00,,---,0.01,VWS V14.01,2013-04-25 17:29:00,
2013-04-25 13:30:00,39.3,30.4,30.05,NE,37,1.0,18.0,70,0.00,,---,0.01,VWS V14.01,2013-04-25 17:30:00,
2013-04-25 13:34:00,37.9,32.3,30.09,NW,318,1.0,7.0,80,0.00,,---,0.01,VWS V14.01,2013-04-25 17:34:00,
2013-04-25 13:39:00,38.5,33.2,30.09,SSW,208,0.0,12.0,81,0.00,,---,0.01,VWS V14.01,2013-04-25 17:39:00,
2013-04-25 13:44:00,39.2,32.3,30.09,NW,316,7.0,12.0,76,0.00,,---,0.01,VWS V14.01,2013-04-25 17:44:00,
2013-04-25 13:49:00,39.2,31.3,30.09,WSW,237,12.0,19.0,73,0.00,,---,0.01,VWS V14.01,2013-04-25 17:49:00,
2013-04-25 13:54:00,39.5,31.9,30.09,SSW,212,0.0,19.0,74,0.00,,---,0.01,VWS V14.01,2013-04-25 17:54:00,
2013-04-25 13:59:00,39.6,31.7,30.09,SW,232,3.0,19.0,73,0.00,,---,0.01,VWS V14.01,2013-04-25 17:59:00,
2013-04-25 14:00:00,38.5,31.0,30.07,NW,322,3.0,19.0,74,0.00,,---,0.01,VWS V14.01,2013-04-25 18:00:00,
2013-04-25 14:04:00,40.2,31.9,30.10,SW,234,7.0,11.0,72,0.00,,---,0.01,VWS V14.01,2013-04-25 18:04:00,
2013-04-25 14:09:00,40.5,31.1,30.10,WSW,243,9.0,11.0,69,0.00,,---,0.01,VWS V14.01,2013-04-25 18:09:00,
2013-04-25 14:14:00,41.2,32.2,30.10,North,11,5.0,12.0,70,0.00,,---,0.01,VWS V14.01,2013-04-25 18:14:00,
2013-04-25 14:19:00,41.8,31.7,30.10,WNW,296,7.0,13.0,67,0.00,,---,0.01,VWS V14.01,2013-04-25 18:19:00,
2013-04-25 14:24:00,41.2,30.7,30.10,North,8,4.0,13.0,66,0.00,,---,0.01,VWS V14.01,2013-04-25 18:24:00,
2013-04-25 14:29:00,41.3,31.9,30.10,WSW,256,1.0,14.0,69,0.00,,---,0.01,VWS V14.01,2013-04-25 18:29:00,
2013-04-25 14:30:00,38.0,31.8,30.09,North,349,7.0,16.0,78,0.00,,---,0.01,VWS V14.01,2013-04-25 18:30:00,
2013-04-25 14:34:00,42.5,33.4,30.11,WNW,282,2.0,13.0,70,0.00,,---,0.01,VWS V14.01,2013-04-25 18:34:00,
2013-04-25 14:39:00,42.5,33.4,30.11,West,278,10.0,13.0,70,0.00,,---,0.01,VWS V14.01,2013-04-25 18:39:00,
2013-04-25 14:44:00,41.9,30.6,30.11,South,189,5.0,13.0,64,0.00,,---,0.01,VWS V14.01,2013-04-25 18:44:00,
2013-04-25 14:49:00,41.6,31.8,30.12,WSW,241,8.0,13.0,68,0.00,,---,0.01,VWS V14.01,2013-04-25 18:49:00,
2013-04-25 14:54:00,41.2,31.5,30.12,NNE,14,2.0,13.0,68,0.00,,---,0.01,VWS V14.01,2013-04-25 18:54:00,
2013-04-25 14:59:00,41.5,30.2,30.12,NNE,25,3.0,13.0,64,0.00,,---,0.01,VWS V14.01,2013-04-25 18:59:00,
2013-04-25 15:00:00,39.8,32.2,30.10,North,0,2.0,19.0,74,0.00,,---,0.01,VWS V14.01,2013-04-25 19:00:00,
2013-04-25 15:04:00,41.9,30.6,30.12,SW,224,6.0,14.0,64,0.00,,---,0.01,VWS V14.01,2013-04-25 19:04:00,
2013-04-25 15:09:00,42.3,30.6,30.12,West,275,12.0,14.0,63,0.00,,---,0.01,VWS V14.01,2013-04-25 19:09:00,
2013-04-25 15:14:00,42.8,30.7,30.12,SW,215,9.0,14.0,62,0.00,,---,0.01,VWS V14.01,2013-04-25 19:14:00,
2013-04-25 15:19:00,42.6,31.3,30.13,West,277,7.0,14.0,64,0.00,,---,0.01,VWS V14.01,2013-04-25 19:19:00,
2013-04-25 15:24:00,43.3,31.2,30.13,SE,143,2.0,14.0,62,0.00,,---,0.01,VWS V14.01,2013-04-25 19:24:00,
2013-04-25 15:29:00,43.3,31.2,30.13,SW,230,3.0,14.0,62,0.00,,---,0.01,VWS V14.01,2013-04-25 19:29:00,
2013-04-25 15:30:00,41.6,31.5,30.11,NW,322,3.0,14.0,67,0.00,,---,0.01,VWS V14.01,2013-04-25 19:30:00,
2013-04-25 15:34:00,43.8,31.2,30.13,WSW,244,5.0,10.0,61,0.00,,---,0.01,VWS V14.01,2013-04-25 19:34:00,
2013-04-25 15:39:00,44.2,30.8,30.13,SSW,193,6.0,11.0,59,0.00,,---,0.01,VWS V14.01,2013-04-25 19:39:00,
2013-04-25 15:44:00,44.3,30.5,30.13,WNW,301,10.0,11.0,58,0.00,,---,0.01,VWS V14.01,2013-04-25 19:44:00,
2013-04-25 15:49:00,44.8,30.1,30.13,SSE,160,5.0,14.0,56,0.00,,---,0.01,VWS V14.01,2013-04-25 19:49:00,
2013-04-25 15:54:00,44.9,30.6,30.13,WSW,253,2.0,14.0,57,0.00,,---,0.01,VWS V14.01,2013-04-25 19:54:00,
2013-04-25 15:59:00,45.2,30.5,30.13,WNW,288,3.0,14.0,56,0.00,,---,0.01,VWS V14.01,2013-04-25 19:59:00,
2013-04-25 16:00:00,41.8,30.5,30.12,WSW,250,7.0,13.0,64,0.00,,---,0.01,VWS V14.01,2013-04-25 20:00:00,
2013-04-25 16:04:00,45.2,30.5,30.13,West,265,5.0,13.0,56,0.00,,---,0.01,VWS V14.01,2013-04-25 20:04:00,
2013-04-25 16:09:00,45.2,30.5,30.13,South,174,8.0,13.0,56,0.00,,---,0.01,VWS V14.01,2013-04-25 20:09:00,
2013-04-25 16:14:00,45.7,30.5,30.13,NE,38,2.0,13.0,55,0.00,,---,0.01,VWS V14.01,2013-04-25 20:14:00,
2013-04-25 16:19:00,45.7,30.5,30.14,WNW,302,7.0,13.0,55,0.00,,---,0.01,VWS V14.01,2013-04-25 20:19:00,
2013-04-25 16:24:00,45.7,30.0,30.14,ESE,112,2.0,16.0,54,0.00,,---,0.01,VWS V14.01,2013-04-25 20:24:00,
2013-04-25 16:29:00,46.0,28.9,30.14,SSE,165,11.0,17.0,51,0.00,,---,0.01,VWS V14.01,2013-04-25 20:29:00,
2013-04-25 16:30:00,43.3,31.2,30.13,West,280,3.0,14.0,62,0.00,,---,0.01,VWS V14.01,2013-04-25 20:30:00,
2013-04-25 16:34:00,46.0,29.8,30.14,NW,306,1.0,14.0,53,0.00,,---,0.01,VWS V14.01,2013-04-25 20:34:00,
2013-04-25 16:39:00,46.1,29.0,30.14,NNW,332,2.0,14.0,51,0.00,,---,0.01,VWS V14.01,2013-04-25 20:39:00,
2013-04-25 16:44:00,46.2,27.6,30.14,North,357,7.0,14.0,48,0.00,,---,0.01,VWS V14.01,2013-04-25 20:44:00,
2013-04-25 16:49:00,46.4,29.8,30.14,West,271,3.0,14.0,52,0.00,,---,0.01,VWS V14.01,2013-04-25 20:49:00,
2013-04-25 16:54:00,47.1,29.4,30.14,South,182,3.0,16.0,50,0.00,,---,0.01,VWS V14.01,2013-04-25 20:54:00,
2013-04-25 16:59:00,46.1,28.5,30.14,WSW,239,6.0,16.0,50,0.00,,---,0.01,VWS V14.01,2013-04-25 20:59:00,
2013-04-25 17:00:00,45.2,30.5,30.13,SSE,160,5.0,14.0,56,0.00,,---,0.01,VWS V14.01,2013-04-25 21:00:00,
2013-04-25 17:04:00,46.0,29.8,30.15,NW,323,6.0,11.0,53,0.00,,---,0.01,VWS V14.01,2013-04-25 21:04:00,
2013-04-25 17:09:00,46.5,29.4,30.15,SW,233,6.0,11.0,51,0.00,,---,0.01,VWS V14.01,2013-04-25 21:09:00,
2013-04-25 17:14:00,46.8,29.6,30.15,SE,131,0.0,11.0,51,0.00,,---,0.01,VWS V14.01,2013-04-25 21:14:00,
2013-04-25 17:19:00,47.0,29.3,30.16,NW,318,4.0,11.0,50,0.00,,---,0.01,VWS V14.01,2013-04-25 21:19:00,
2013-04-25 17:24:00,46.8,29.6,30.16,SSE,154,6.0,11.0,51,0.00,,---,0.01,VWS V14.01,2013-04-25 21:24:00,
2013-04-25 17:29:00,46.7,29.5,30.16,SW,220,5.0,14.0,51,0.00,,---,0.01,VWS V14.01,2013-04-25 21:29:00,
2013-04-25 17:30:00,46.0,28.9,30.14,SSW,203,4.0,17.0,51,0.00,,---,0.01,VWS V14.01,2013-04-25 21:30:00,
2013-04-25 17:34:00,46.7,28.6,30.16,South,182,4.0,10.0,49,0.00,,---,0.01,VWS V14.01,2013-04-25 21:34:00,
2013-04-25 17:39:00,46.7,29.5,30.16,South,179,3.0,11.0,51,0.00,,---,0.01,VWS V14.01,2013-04-25 21:39:00,
2013-04-25 17:44:00,46.5,29.8,30.16,NW,304,1.0,11.0,52,0.00,,---,0.01,VWS V14.01,2013-04-25 21:44:00,
2013-04-25 17:49:00,46.5,28.9,30.17,SW,230,6.0,11.0,50,0.00,,---,0.01,VWS V14.01,2013-04-25 21:49:00,
2013-04-25 17:54:00,46.7,29.1,30.17,WSW,258,7.0,12.0,50,0.00,,---,0.01,VWS V14.01,2013-04-25 21:54:00,
2013-04-25 17:59:00,46.7,28.1,30.17,SSE,160,6.0,12.0,48,0.00,,---,0.01,VWS V14.01,2013-04-25 21:59:00,
2013-04-25 18:00:00,46.0,28.4,30.15,WSW,248,5.0,16.0,50,0.00,,---,0.01,VWS V14.01,2013-04-25 22:00:00,
2013-04-25 18:04:00,46.7,26.5,30.18,SSE,168,0.0,8.0,45,0.00,,---,0.01,VWS V14.01,2013-04-25 22:04:00,
2013-04-25 18:09:00,47.0,26.2,30.18,SSW,210,1.0,8.0,44,0.00,,---,0.01,VWS V14.01,2013-04-25 22:09:00,
2013-04-25 18:14:00,46.7,24.8,30.18,SW,232,5.0,8.0,42,0.00,,---,0.01,VWS V14.01,2013-04-25 22:14:00,
2013-04-25 18:19:00,46.7,26.5,30.18,SW,222,3.0,8.0,45,0.00,,---,0.01,VWS V14.01,2013-04-25 22:19:00,
2013-04-25 18:24:00,46.7,24.8,30.18,WSW,239,5.0,11.0,42,0.00,,---,0.01,VWS V14.01,2013-04-25 22:24:00,
2013-04-25 18:29:00,46.7,27.0,30.18,East,93,0.0,11.0,46,0.00,,---,0.01,VWS V14.01,2013-04-25 22:29:00,
2013-04-25 18:30:00,46.7,29.5,30.16,SW,226,4.0,14.0,51,0.00,,---,0.01,VWS V14.01,2013-04-25 22:30:00,
2013-04-25 18:34:00,46.7,26.5,30.19,WNW,284,7.0,10.0,45,0.00,,---,0.01,VWS V14.01,2013-04-25 22:34:00,
2013-04-25 18:39:00,46.5,26.3,30.19,NW,323,2.0,13.0,45,0.00,,---,0.01,VWS V14.01,2013-04-25 22:39:00,
2013-04-25 18:44:00,46.5,26.9,30.20,WSW,258,4.0,13.0,46,0.00,,---,0.01,VWS V14.01,2013-04-25 22:44:00,
2013-04-25 18:49:00,46.5,24.7,30.20,WSW,257,1.0,13.0,42,0.00,,---,0.01,VWS V14.01,2013-04-25 22:49:00,
2013-04-25 18:54:00,46.4,25.7,30.20,West,278,0.0,13.0,44,0.00,,---,0.01,VWS V14.01,2013-04-25 22:54:00,
2013-04-25 18:59:00,46.4,26.2,30.20,West,275,1.0,13.0,45,0.00,,---,0.01,VWS V14.01,2013-04-25 22:59:00,
2013-04-25 19:00:00,46.7,28.6,30.18,North,10,10.0,12.0,49,0.00,,---,0.01,VWS V14.01,2013-04-25 23:00:00,
2013-04-25 19:04:00,46.0,25.9,30.20,WNW,298,3.0,8.0,45,0.00,,---,0.01,VWS V14.01,2013-04-25 23:04:00,
2013-04-25 19:09:00,45.7,26.6,30.20,SW,232,2.0,8.0,47,0.00,,---,0.01,VWS V14.01,2013-04-25 23:09:00,
2013-04-25 19:14:00,45.4,27.4,30.20,NW,311,0.0,8.0,49,0.00,,---,0.01,VWS V14.01,2013-04-25 23:14:00,
2013-04-25 19:19:00,45.2,26.7,30.20,West,274,5.0,8.0,48,0.00,,---,0.01,VWS V14.01,2013-04-25 23:19:00,
2013-04-25 19:24:00,44.9,27.4,30.20,WNW,287,2.0,8.0,50,0.00,,---,0.01,VWS V14.01,2013-04-25 23:24:00,
2013-04-25 19:29:00,44.6,28.1,30.21,WNW,285,3.0,8.0,52,0.00,,---,0.01,VWS V14.01,2013-04-25 23:29:00,
2013-04-25 19:30:00,46.7,27.0,30.19,NW,326,2.0,11.0,46,0.00,,---,0.01,VWS V14.01,2013-04-25 23:30:00,
2013-04-25 19:34:00,44.5,29.8,30.21,WSW,241,1.0,4.0,56,0.00,,---,0.01,VWS V14.01,2013-04-25 23:34:00,
2013-04-25 19:39:00,44.3,28.3,30.21,WSW,254,3.0,7.0,53,0.00,,---,0.01,VWS V14.01,2013-04-25 23:39:00,
2013-04-25 19:44:00,44.2,29.1,30.21,SW,230,5.0,10.0,55,0.00,,---,0.01,VWS V14.01,2013-04-25 23:44:00,
2013-04-25 19:49:00,44.1,29.4,30.21,SSW,200,5.0,10.0,56,0.00,,---,0.01,VWS V14.01,2013-04-25 23:49:00,
2013-04-25 19:55:00,43.8,29.1,30.21,WNW,287,0.0,10.0,56,0.00,,---,0.01,VWS V14.01,2013-04-25 23:55:00,
2013-04-25 20:00:00,43.5,28.9,30.22,NNW,342,2.0,10.0,56,0.00,,---,0.01,VWS V14.01,2013-04-26 00:00:00,
2013-04-25 20:05:00,43.3,28.7,30.22,WNW,285,1.0,4.0,56,0.00,,---,0.01,VWS V14.01,2013-04-26 00:05:00,
2013-04-25 20:10:00,43.1,28.5,30.22,South,176,0.0,4.0,56,0.00,,---,0.01,VWS V14.01,2013-04-26 00:10:00,
2013-04-25 20:15:00,42.9,29.6,30.22,South,176,0.0,4.0,59,0.00,,---,0.01,VWS V14.01,2013-04-26 00:15:00,
2013-04-25 20:20:00,42.6,29.3,30.22,SSW,202,0.0,4.0,59,0.00,,---,0.01,VWS V14.01,2013-04-26 00:20:00,
2013-04-25 20:25:00,42.1,29.2,30.22,SSW,202,0.0,4.0,60,0.00,,---,0.01,VWS V14.01,2013-04-26 00:25:00,
2013-04-25 20:30:00,41.8,29.0,30.22,SSE,168,1.0,4.0,60,0.00,,---,0.01,VWS V14.01,2013-04-26 00:30:00,
2013-04-25 20:35:00,41.5,29.1,30.22,SSE,168,0.0,1.0,61,0.00,,---,0.01,VWS V14.01,2013-04-26 00:35:00,
2013-04-25 20:40:00,41.3,28.9,30.22,SSE,168,0.0,2.0,61,0.00,,---,0.01,VWS V14.01,2013-04-26 00:40:00,
2013-04-25 20:45:00,41.1,28.7,30.23,SSE,168,0.0,2.0,61,0.00,,---,0.01,VWS V14.01,2013-04-26 00:45:00,
2013-04-25 20:50:00,40.8,28.8,30.23,SSE,168,0.0,2.0,62,0.00,,---,0.01,VWS V14.01,2013-04-26 00:50:00,
2013-04-25 20:55:00,40.6,29.0,30.23,SSE,168,0.0,2.0,63,0.00,,---,0.01,VWS V14.01,2013-04-26 00:55:00,
2013-04-25 21:00:00,40.5,28.9,30.23,SSE,168,0.0,2.0,63,0.00,,---,0.01,VWS V14.01,2013-04-26 01:00:00,
2013-04-25 21:05:00,39.9,28.7,30.23,SSE,168,0.0,0.0,64,0.00,,---,0.01,VWS V14.01,2013-04-26 01:05:00,
2013-04-25 21:10:00,39.5,28.7,30.23,SSE,168,0.0,0.0,65,0.00,,---,0.01,VWS V14.01,2013-04-26 01:10:00,
2013-04-25 21:15:00,39.2,28.4,30.24,SSE,168,0.0,0.0,65,0.00,,---,0.01,VWS V14.01,2013-04-26 01:15:00,
2013-04-25 21:20:00,39.2,28.8,30.24,SSE,168,0.0,0.0,66,0.00,,---,0.01,VWS V14.01,2013-04-26 01:20:00,
2013-04-25 21:25:00,39.2,28.8,30.24,SSE,168,0.0,0.0,66,0.00,,---,0.01,VWS V14.01,2013-04-26 01:25:00,
2013-04-25 21:30:00,39.2,28.1,30.25,SSE,168,0.0,0.0,64,0.00,,---,0.01,VWS V14.01,2013-04-26 01:30:00,
2013-04-25 21:35:00,38.9,28.1,30.25,SSE,168,0.0,0.0,65,0.00,,---,0.01,VWS V14.01,2013-04-26 01:35:00,
2013-04-25 21:40:00,38.6,28.2,30.25,SSE,168,0.0,0.0,66,0.00,,---,0.01,VWS V14.01,2013-04-26 01:40:00,
2013-04-25 21:45:00,38.3,28.0,30.25,SSE,168,0.0,0.0,66,0.00,,---,0.01,VWS V14.01,2013-04-26 01:45:00,
2013-04-25 21:50:00,38.0,28.0,30.25,SSE,168,0.0,1.0,67,0.00,,---,0.01,VWS V14.01,2013-04-26 01:50:00,
2013-04-25 21:55:00,37.6,28.4,30.25,SSE,168,0.0,1.0,69,0.00,,---,0.01,VWS V14.01,2013-04-26 01:55:00,
2013-04-25 22:00:00,37.2,28.7,30.26,SSE,168,0.0,1.0,71,0.00,,---,0.01,VWS V14.01,2013-04-26 02:00:00,
2013-04-25 22:05:00,36.5,28.4,30.26,SSE,168,0.0,0.0,72,0.00,,---,0.01,VWS V14.01,2013-04-26 02:05:00,
2013-04-25 22:10:00,36.0,27.9,30.26,SSE,168,0.0,0.0,72,0.00,,---,0.01,VWS V14.01,2013-04-26 02:10:00,
2013-04-25 22:15:00,35.6,28.1,30.26,SSE,168,0.0,0.0,74,0.00,,---,0.01,VWS V14.01,2013-04-26 02:15:00,
2013-04-25 22:20:00,35.2,27.8,30.26,SSE,168,0.0,1.0,74,0.00,,---,0.01,VWS V14.01,2013-04-26 02:20:00,
2013-04-25 22:25:00,34.9,28.1,30.26,SSE,168,0.0,1.0,76,0.00,,---,0.01,VWS V14.01,2013-04-26 02:25:00,
2013-04-25 22:30:00,35.0,27.9,30.26,SSE,168,0.0,1.0,75,0.00,,---,0.01,VWS V14.01,2013-04-26 02:30:00,
2013-04-25 22:35:00,35.0,28.2,30.26,SSE,168,0.0,0.0,76,0.00,,---,0.01,VWS V14.01,2013-04-26 02:35:00,
2013-04-25 22:40:00,35.2,28.4,30.26,SSE,168,0.0,0.0,76,0.00,,---,0.01,VWS V14.01,2013-04-26 02:40:00,
2013-04-25 22:45:00,34.9,28.1,30.27,SSE,164,0.0,1.0,76,0.00,,---,0.01,VWS V14.01,2013-04-26 02:45:00,
2013-04-25 22:50:00,35.0,28.2,30.27,ESE,117,1.0,3.0,76,0.00,,---,0.01,VWS V14.01,2013-04-26 02:50:00,
2013-04-25 22:55:00,35.2,28.4,30.27,ESE,116,1.0,3.0,76,0.00,,---,0.01,VWS V14.01,2013-04-26 02:55:00,
2013-04-25 23:00:00,35.3,27.9,30.27,ESE,116,1.0,3.0,74,0.00,,---,0.01,VWS V14.01,2013-04-26 03:00:00,
2013-04-25 23:05:00,35.2,28.1,30.27,ESE,116,1.0,1.0,75,0.00,,---,0.01,VWS V14.01,2013-04-26 03:05:00,
2013-04-25 23:10:00,34.9,27.8,30.27,ESE,116,0.0,1.0,75,0.00,,---,0.01,VWS V14.01,2013-04-26 03:10:00,
2013-04-25 23:15:00,34.9,28.1,30.28,ESE,116,0.0,1.0,76,0.00,,---,0.01,VWS V14.01,2013-04-26 03:15:00,
2013-04-25 23:20:00,34.7,27.6,30.28,SE,130,0.0,5.0,75,0.00,,---,0.01,VWS V14.01,2013-04-26 03:20:00,
2013-04-25 23:25:00,34.7,27.6,30.28,SE,126,0.0,5.0,75,0.00,,---,0.01,VWS V14.01,2013-04-26 03:25:00,
2013-04-25 23:30:00,34.7,27.6,30.28,SE,124,0.0,5.0,75,0.00,,---,0.01,VWS V14.01,2013-04-26 03:30:00,
2013-04-25 23:35:00,34.6,27.5,30.28,ESE,123,0.0,2.0,75,0.00,,---,0.01,VWS V14.01,2013-04-26 03:35:00,
2013-04-25 23:40:00,34.6,27.2,30.28,SE,133,2.0,3.0,74,0.00,,---,0.01,VWS V14.01,2013-04-26 03:40:00,
2013-04-25 23:45:00,34.4,27.6,30.28,South,175,0.0,3.0,76,0.00,,---,0.01,VWS V14.01,2013-04-26 03:45:00,
2013-04-25 23:50:00,34.3,27.5,30.28,South,175,0.0,3.0,76,0.00,,---,0.01,VWS V14.01,2013-04-26 03:50:00,
2013-04-25 23:55:00,34.1,27.3,30.28,SE,140,0.0,3.0,76,0.00,,---,0.01,VWS V14.01,2013-04-26 03:55:00,